User: anonymous   Login
Location: Albany
(35.0000°S, 118.0000°E)
Time: 01:07:59
(UTC-04:00)
Language:

CZ-4B R/B - Orbit

View from above orbital plane
View from above orbital plane
View from above satellite
View from above satellite

Ground track
Ground track

The orbit data is extracted from the following two-line orbital elements,

1 33410U 08053C   15239.87794329  .00001364  00000-0  10779-3 0  9997
2 33410 097.6391 209.8099 0122287 243.0164 115.8528 14.96705660372104
Epoch (UTC): 27 August 2015 21:04:14
Eccentricity: 0.0122287
inclination: 97.6391°
perigee height: 492 km
apogee height: 662 km
right ascension of ascending node: 209.8099°
argument of perigee: 243.0164°
revolutions per day: 14.96705660
mean anomaly at epoch: 115.8528°
orbit number at epoch: 37210

The dashed part of the orbit path shows where the satellite is in the earth's shadow,  

DLR